Dewpoint
-6 -5 -6 -10 -12 -9 -8 -6 -6 -6 -4 -4 -5 -4 -2 -2 -2 -3 -3 -4 -3 -3 -3 -4 -5 -6 -6 -6 -5 -4 -8 -11
-5 -5 -5 -8 -9 -9 -9 -8 -7 -6 -5 -4 -4 -4 -3 -3 -3 -3 -3 -3 -2 -2 -2 -3 -5 -5 -5 -7 -8 -9 -2 -6
-5 -5 -5 -6 -8 -8 -9 -9 -8 -7 -5 -5 -4 -4 -3 -3 -3 -3 -3 -2 -1 -2 -2 -3 -5 -7 -10 -11 -12 -13 -4 -7
-6 -5 -5 -5 -6 -7 -8 -10 -8 -7 -5 -5 -4 -4 -3 -3 -2 -1 -1 -1 -2 -3 -4 -6 -9 -11 -11 -12 -15 -18 -14 -5
-6 -6 -5 -5 -5 -6 -7 -9 -8 -7 -6 -4 -3 -4 -3 -2 -1 -1 -0 -1 -2 -4 -6 -10 -11 -11 -12 -16 -22 -25 -26 -18
-6 -6 -6 -5 -4 -5 -7 -8 -8 -8 -6 -4 -4 -3 -2 -2 -1 0 0 -2 -4 -7 -10 -11 -11 -13 -17 -22 -26 -27 -26 -22
-6 -7 -7 -6 -4 -4 -5 -6 -7 -5 -4 -3 -2 -2 -1 -0 0 0 -1 -3 -6 -10 -11 -12 -14 -18 -22 -24 -25 -25 -22 -20
-5 -6 -7 -6 -5 -4 -4 -4 -5 -3 -2 -1 -1 -0 -0 0 1 -0 -2 -6 -10 -11 -12 -14 -18 -21 -23 -22 -21 -21 -21 -19
-5 -6 -7 -7 -6 -4 -3 -4 -4 -3 -2 -1 -1 -1 0 1 -0 -2 -6 -10 -11 -12 -15 -18 -20 -21 -21 -21 -20 -19 -19 -18
-7 -6 -6 -7 -6 -5 -3 -3 -3 -3 -2 -2 -1 -0 1 -0 -2 -5 -9 -11 -13 -15 -17 -18 -18 -19 -19 -19 -18 -19 -18 -17
-7 -7 -7 -7 -7 -5 -4 -2 -2 -3 -2 -1 -0 0 -0 -2 -5 -9 -11 -13 -15 -17 -17 -17 -17 -18 -17 -17 -17 -18 -17 -15
-7 -7 -7 -6 -6 -5 -4 -2 -2 -2 -2 -0 0 -0 -2 -5 -9 -11 -13 -15 -16 -16 -16 -16 -16 -16 -16 -15 -14 -12 -14 -13
-5 -5 -5 -5 -4 -4 -3 -2 -2 -1 -0 0 -1 -3 -6 -9 -11 -13 -14 -15 -16 -15 -15 -15 -15 -15 -14 -14 -13 -12 -12 -12
-4 -4 -3 -3 -2 -2 -2 -1 -1 -0 0 -2 -4 -7 -10 -11 -13 -14 -15 -15 -15 -14 -14 -14 -13 -13 -13 -12 -12 -12 -10 -11
-3 -2 -1 -1 -1 -1 -1 0 0 -1 -3 -5 -8 -10 -11 -12 -13 -14 -15 -15 -14 -14 -13 -13 -13 -12 -12 -11 -10 -9 -9 -10
-1 -1 -1 -0 0 0 -0 -2 -4 -5 -7 -9 -10 -11 -12 -13 -14 -14 -14 -13 -13 -13 -12 -12 -12 -12 -11 -10 -10 -9 -9 -9
-2 -1 -0 -1 -2 -3 -4 -6 -7 -9 -9 -10 -11 -12 -13 -14 -14 -14 -13 -13 -12 -12 -12 -11 -11 -11 -10 -11 -11 -10 -9 -9
-2 -3 -4 -5 -6 -7 -8 -8 -9 -9 -10 -12 -13 -13 -14 -13 -13 -13 -12 -13 -13 -13 -12 -11 -11 -11 -12 -14 -12 -10 -9 -9
-4 -5 -7 -7 -8 -8 -8 -9 -10 -11 -12 -13 -14 -14 -15 -15 -15 -16 -17 -16 -14 -12 -11 -13 -13 -13 -15 -13 -13 -10 -10 -10
Wind_Speed
11 10 7 8 9 10 8 7 9 9 9 9 9 9 9 7 8 9 10 12 14 16 18 19 21 22 24 26 26 26 24 23
15 13 11 11 11 11 10 9 9 9 7 7 7 6 5 5 7 7 8 11 13 15 17 18 20 22 24 26 27 26 21 26
21 19 16 13 11 12 12 10 9 9 7 7 6 4 3 2 5 7 9 12 13 16 18 19 21 23 25 28 29 28 21 22
26 25 22 18 16 14 12 11 10 9 8 9 7 5 4 1 3 6 10 13 15 16 17 19 22 24 26 27 27 27 24 19
29 28 26 22 18 16 13 12 12 11 11 11 9 8 6 4 4 7 9 13 14 15 16 19 21 23 24 25 24 23 21 20
34 31 28 24 21 18 15 14 15 14 13 13 11 10 8 7 7 7 10 13 14 16 18 20 21 23 24 24 23 21 19 18
37 32 30 29 25 22 20 18 17 17 16 14 12 11 10 10 9 9 11 13 15 16 18 20 22 23 23 22 21 20 19 17
39 40 38 34 32 27 24 22 21 19 17 16 14 14 14 13 10 10 11 13 14 16 19 21 23 23 22 20 19 19 20 19
38 41 39 38 36 33 28 25 23 22 20 18 17 17 15 12 10 11 12 12 14 17 20 21 22 22 21 21 20 19 18 17
18 32 40 39 38 36 31 27 25 25 23 21 19 17 14 12 11 11 12 13 15 18 20 22 23 22 21 20 19 18 17 17
10 16 27 37 38 37 33 29 26 25 24 20 18 16 13 11 11 12 13 15 17 19 21 24 24 23 21 20 19 18 18 17
8 10 14 23 31 35 35 30 28 25 22 19 15 12 10 11 12 13 14 16 18 21 24 25 24 23 21 19 20 16 19 18
7 7 9 15 21 27 35 30 26 20 18 15 11 9 10 11 12 14 16 18 21 23 25 26 24 23 21 21 20 18 20 18
5 2 5 10 16 23 27 24 20 17 14 10 7 9 10 12 13 16 18 20 22 24 26 26 22 23 23 22 23 23 20 21
2 2 6 10 14 21 23 20 16 12 7 5 7 9 11 13 15 17 18 21 25 26 26 24 23 25 26 26 25 22 21 23
5 7 11 17 22 23 20 16 11 6 2 4 7 9 13 15 15 17 21 24 24 25 27 28 27 27 26 24 24 22 26 28
10 14 21 24 23 20 16 11 6 2 3 6 10 12 13 13 18 22 25 26 28 30 30 29 27 24 22 24 25 28 31 30
18 24 24 22 19 15 11 7 3 4 7 9 12 14 15 18 21 24 26 27 27 27 26 25 27 28 29 31 32 33 28 27
26 26 23 18 14 10 6 4 4 6 9 11 14 16 18 21 23 25 26 26 26 26 27 29 29 27 29 27 29 27 27 27
Wind_Direction
200 198 191 183 181 180 174 157 156 148 134 116 99 93 89 77 60 45 31 22 18 14 11 7 5 5 3 3 1 1 2 359
204 203 202 193 192 189 181 171 172 166 160 139 116 110 117 81 52 35 17 7 1 359 357 357 359 359 357 354 353 352 354 351
208 207 210 206 198 196 191 182 178 181 177 171 153 139 155 64 19 14 11 2 353 349 349 351 354 352 350 349 347 346 345 350
211 211 214 208 204 202 193 191 190 190 188 185 185 185 195 281 350 354 358 354 346 342 343 346 345 344 344 343 340 340 340 343
218 216 214 212 208 202 196 194 195 197 193 191 204 202 208 255 310 330 339 339 336 335 337 338 339 340 339 339 338 335 330 330
219 219 219 216 207 206 201 197 198 202 198 202 209 207 228 264 286 301 317 328 330 331 333 336 338 340 339 337 336 334 330 325
223 222 222 218 210 208 205 203 200 203 203 208 214 229 255 272 278 290 310 318 322 325 330 336 339 339 338 337 336 331 330 328
223 221 221 219 214 211 209 205 204 207 209 214 227 241 256 262 259 278 299 311 317 324 332 336 338 338 338 336 334 331 328 327
228 225 224 221 217 214 212 209 207 212 217 224 234 246 251 246 259 285 302 313 323 330 334 337 339 337 336 333 332 331 327 324
244 233 229 228 223 219 215 211 211 217 225 232 240 244 240 249 274 295 312 320 327 331 333 338 337 335 333 332 332 333 331 327
266 250 240 234 228 222 216 214 214 220 228 237 238 235 241 266 292 310 318 323 326 329 333 336 335 332 330 330 331 331 334 325
306 270 253 241 235 224 216 213 213 219 228 229 226 233 261 289 307 315 320 323 326 329 332 334 330 326 324 324 328 325 332 324
316 281 255 241 231 221 212 208 209 215 217 215 225 256 285 303 314 321 324 324 325 327 329 328 326 320 316 317 313 308 321 317
333 268 220 220 214 206 198 197 198 197 199 215 252 287 307 318 322 324 322 322 320 320 322 324 309 308 305 303 302 302 303 305
13 150 172 178 181 181 177 172 173 178 195 244 292 313 321 323 323 321 317 315 315 315 315 312 307 303 298 298 295 289 296 295
95 126 140 147 150 150 151 152 154 170 237 311 324 324 325 325 321 311 309 308 306 301 301 302 298 295 292 290 293 287 293 293
121 129 135 135 136 135 136 136 140 114 349 331 326 326 323 312 304 303 301 299 298 300 302 301 299 295 294 292 287 287 293 292
129 133 132 128 127 127 126 115 68 0 343 335 330 324 315 306 302 302 303 305 307 307 307 305 304 301 300 298 292 292 294 291
133 133 130 126 122 112 90 66 19 349 338 330 321 316 312 309 308 309 311 312 313 315 314 313 312 312 311 307 302 303 298 296
Height
1598 1600 1602 1603 1605 1606 1607 1608 1610 1610 1611 1611 1611 1611 1611 1610 1609 1608 1606 1605 1604 1602 1600 1598 1595 1593 1590 1588 1585 1583 1580 1578
1596 1599 1600 1601 1603 1604 1605 1606 1608 1610 1611 1611 1611 1611 1611 1610 1610 1608 1607 1605 1604 1602 1600 1597 1595 1591 1588 1585 1584 1582 1578 1575
1590 1593 1596 1598 1600 1602 1603 1604 1605 1607 1609 1610 1611 1611 1610 1611 1610 1608 1607 1605 1603 1601 1599 1596 1593 1590 1586 1583 1580 1578 1576 1573
1585 1588 1591 1595 1597 1599 1600 1602 1603 1605 1607 1608 1609 1609 1610 1610 1609 1608 1606 1603 1602 1600 1597 1594 1591 1588 1585 1582 1580 1576 1574 1572
1579 1583 1586 1590 1593 1596 1598 1599 1601 1603 1605 1606 1607 1607 1608 1608 1607 1605 1603 1602 1601 1599 1596 1592 1589 1587 1584 1581 1578 1575 1573 1569
1571 1576 1581 1586 1590 1592 1594 1596 1598 1600 1602 1603 1603 1604 1606 1605 1605 1604 1602 1599 1598 1596 1595 1592 1588 1585 1582 1579 1576 1573 1570 1568
1566 1572 1576 1580 1585 1587 1590 1592 1595 1597 1598 1600 1602 1603 1604 1604 1603 1602 1600 1598 1597 1595 1592 1589 1586 1582 1579 1577 1574 1570 1568 1565
1558 1563 1567 1573 1578 1582 1585 1588 1591 1594 1597 1598 1600 1601 1601 1601 1599 1600 1598 1596 1594 1592 1589 1586 1583 1580 1576 1574 1572 1569 1565 1563
1551 1555 1561 1566 1571 1575 1580 1584 1588 1591 1594 1596 1597 1599 1599 1598 1598 1597 1596 1594 1592 1589 1585 1582 1579 1576 1573 1570 1568 1565 1562 1559
1547 1551 1555 1561 1566 1571 1576 1581 1585 1588 1591 1592 1594 1595 1596 1596 1595 1593 1592 1590 1588 1585 1582 1579 1576 1573 1569 1566 1564 1562 1559 1557
1545 1546 1550 1554 1559 1567 1573 1577 1581 1584 1587 1589 1590 1592 1594 1593 1592 1590 1589 1587 1585 1581 1579 1575 1572 1569 1566 1563 1561 1558 1556 1554
1543 1544 1546 1551 1556 1563 1569 1573 1576 1580 1584 1586 1588 1590 1591 1590 1589 1587 1586 1583 1581 1578 1575 1572 1569 1566 1563 1559 1557 1554 1552 1550
1542 1543 1545 1548 1552 1557 1564 1570 1575 1579 1582 1585 1587 1588 1588 1587 1585 1584 1581 1579 1577 1575 1571 1568 1565 1563 1559 1556 1553 1550 1547 1544
1542 1542 1544 1548 1552 1557 1563 1569 1574 1578 1582 1585 1586 1586 1585 1584 1582 1580 1578 1576 1574 1571 1567 1564 1562 1558 1555 1551 1548 1544 1541 1538
1544 1545 1546 1549 1554 1559 1565 1570 1575 1579 1583 1584 1584 1583 1582 1580 1579 1578 1576 1573 1570 1567 1563 1560 1556 1553 1549 1546 1542 1538 1535 1532
1547 1548 1550 1553 1558 1563 1568 1573 1577 1580 1581 1582 1582 1581 1580 1578 1576 1575 1572 1569 1565 1561 1557 1554 1551 1547 1543 1540 1537 1533 1529 1525
1550 1552 1556 1559 1563 1568 1572 1575 1577 1579 1580 1580 1580 1578 1577 1575 1573 1570 1566 1563 1559 1555 1551 1546 1542 1539 1536 1533 1529 1524 1521 1518
1553 1557 1561 1565 1568 1571 1573 1576 1578 1579 1579 1578 1577 1576 1574 1571 1568 1565 1561 1557 1552 1549 1545 1541 1537 1533 1529 1525 1520 1515 1513 1509
1557 1561 1564 1568 1570 1573 1575 1577 1577 1577 1576 1576 1575 1573 1570 1567 1563 1559 1555 1551 1547 1543 1539 1535 1530 1525 1521 1516 1511 1508 1505 1502